Hourly Data Report for July 30, 2005

TORONTO CITY
ONTARIO

43°40'00.000" N
79°24'00.000" W
112.50 m
6158355
71508
XTO

Download Data

Hourly Data (July 2005)
Hourly Data Report for July 30, 2005
TIME
LST
Temp Definition
°C
Dew Point Definition
°C
Rel Hum Definition
%
Precip. Amount Definition
mm

Wind Dir Definition
10's deg

Wind Spd Definition
km/h
Visibility Definition
km
Stn Press Definition
kPa
Hmdx Definition


Wind Chill Definition


Weather Definition


00:00 19.5 10.7 57   LegendMM LegendMM   100.92     LegendNANA
01:00 19.6 10.0 54   LegendMM LegendMM   100.93     LegendNANA
02:00 19.3 11.5 61   LegendMM LegendMM   100.94     LegendNANA
03:00 18.9 12.4 66   LegendMM LegendMM   100.96     LegendNANA
04:00 17.9 12.2 69   LegendMM LegendMM   101.00     LegendNANA
05:00 17.3 12.0 71   LegendMM LegendMM   101.02     LegendNANA
06:00 16.9 11.7 71   LegendMM LegendMM   101.09     LegendNANA
07:00 17.5 11.9 70   LegendMM LegendMM   101.13     LegendNANA
08:00 20.1 12.4 61   LegendMM LegendMM   101.18     LegendNANA
09:00 22.1 13.3 57   LegendMM LegendMM   101.22 25   LegendNANA
10:00 23.1 13.8 56   LegendMM LegendMM   101.25 26   LegendNANA
11:00 23.6 13.5 53   LegendMM LegendMM   101.22 27   LegendNANA
12:00 23.9 14.9 57   LegendMM LegendMM   101.19 28   LegendNANA
13:00 23.9 16.0 61   LegendMM LegendMM   101.16 29   LegendNANA
14:00 24.6 14.9 55   LegendMM LegendMM   101.12 29   LegendNANA
15:00 25.1 13.7 49   LegendMM LegendMM   101.08 28   LegendNANA
16:00 25.0 16.1 58   LegendMM LegendMM   101.04 30   LegendNANA
17:00 23.7 16.8 65   LegendMM LegendMM   101.05 29   LegendNANA
18:00 23.3 16.1 64   LegendMM LegendMM   101.03 28   LegendNANA
19:00 22.8 15.6 64   LegendMM LegendMM   101.03 27   LegendNANA
20:00 21.9 17.0 74   LegendMM LegendMM   101.01 27   LegendNANA
21:00 21.4 16.6 74   LegendMM LegendMM   101.04 26   LegendNANA
22:00 20.8 16.0 74   LegendMM LegendMM   101.02 25   LegendNANA
23:00 20.5 15.2 72   LegendMM LegendMM   101.04 25   LegendNANA

Notes on Data Quality.

Legend

  • E = Estimated
  • M = Missing
  • NA = Not Available*
  • [empty] = Indicates an unobserved value
Date modified: